Regional Weather Roundup
Issued by NWS

Home | Current Version | Previous Version | Graphics & Text | Print | Product List | Glossary On
Versions: 1 2 3 4 5 6 7 8 9 10 11 12 13 14 15 16 17 18 19 20 21 22 23 24 25 26 27 28 29 30 31 32 33 34 35 36 37 38 39 40 41 42 43 44 45 46 47 48 49 50
000
ASUS45 KABQ 280610
RWRNM
WEATHER ROUNDUP FOR NEW MEXICO
NATIONAL WEATHER SERVICE ALBUQUERQUE NM
1200 AM MDT MON JUL 28 2014

NOTE: "FAIR" MEANS FEW OR NO CLOUDS BELOW 12,000 FEET AGL WITH NO
       SIGNIFICANT WEATHER OR OBSTRUCTIONS TO VISION.

      THIS PRODUCT IS RELEASED AS TWO VERSIONS.  ONE VERSION NEAR
      THE TOP OF THE HOUR CONTAINING PRELIMINARY DATA FROM ALBUQUERQUE
      AND OTHER STATIONS.  A FINAL VERSION WITH ADDITIONAL DATA IS
      ISSUED ABOUT 10 MINUTES AFTER THE HOUR.

NMZ501-503-504-510>518-280700-
NORTHWEST PLATEAU/NORTHCENTRAL MOUNTAINS

CITY           SKY/WX    TMP DP  RH WIND       PRES   REMARKS
FARMINGTON     CLOUDY    65  60  84 S6        30.37F
6HR MIN TEMP:  65; 6HR MAX TEMP:  93; 6HR PCP:  0.01;

LOS ALAMOS     CLOUDY    63  51  66 N13G24    30.51R
SANTA FE       MOCLDY    64  58  80 N14       30.43R
6HR MIN TEMP:  63; 6HR MAX TEMP:  72; 6HR PCP:  0.26;

TAOS           CLOUDY    61  54  77 SW15      30.56R THUNDER
ANGEL FIRE     RAIN      55  52  90 S10       30.65S

$$
NMZ402-403-502-505>509-280700-
WESTCENTRAL MOUNTAINS/SOUTHWEST MOUNTAINS

CITY           SKY/WX    TMP DP  RH WIND       PRES   REMARKS
GALLUP         CLOUDY    61  54  77 E10       30.40F
6HR MIN TEMP:  61; 6HR MAX TEMP:  77; 6HR PCP:  0.04;

SILVER CITY    CLOUDY    72  55  56 NW21      30.29R

$$
NMZ407-409-411-412-280700-
SOUTHERN DESERTS

CITY           SKY/WX    TMP DP  RH WIND       PRES   REMARKS
LORDSBURG      MOCLDY    70  61  73 NW8       30.24R
DEMING         CLOUDY    77  56  48 W10       30.18R
6HR MIN TEMP:  77; 6HR MAX TEMP:  98; 6HR PCP: TRACE;

LAS CRUCES     CLOUDY    74  60  61 NW10      30.22F
HOLLOMAN AFB   MOCLDY    84  52  32 SW13G22   30.15R
ALAMOGORDO     CLOUDY    84  50  30 SW12      30.16R
T OR C         MOCLDY    80  51  36 NW13      30.20R
6HR MIN TEMP:  80; 6HR MAX TEMP:  98;


$$
NMZ519>523-280700-
CENTRAL VALLEYS/CENTRAL HIGHLANDS

CITY           SKY/WX    TMP DP  RH WIND       PRES   REMARKS
ALBUQUERQUE    CLOUDY    78  55  44 E15       30.33R
6HR MIN TEMP:  74; 6HR MAX TEMP:  79;

DOUBLE EAGLE   PTCLDY    70  54  57 N12       30.37R
MORIARTY ARPT  FAIR      68  53  59 E21G29    30.40S
6HR MIN TEMP:  68; 6HR MAX TEMP:  86;

CLINES CORNERS PTCLDY    62  54  74 E16       30.47R
6HR MIN TEMP:  62; 6HR MAX TEMP:  82;

BELEN          MOCLDY    72  55  55 NW18G25   30.31R
6HR MIN TEMP:  72; 6HR MAX TEMP:  85;

SOCORRO        FAIR      80  51  36 N13       30.26R
6HR MIN TEMP:  79; 6HR MAX TEMP:  97;


$$
NMZ524>526-539-540-280700-
SOUTHCENTRAL MOUNTAINS

CITY           SKY/WX    TMP DP  RH WIND       PRES   REMARKS
RUIDOSO        PTCLDY    70  46  43 CALM      30.45R

$$
NMZ527>531-280700-
NORTHEAST HIGHLANDS/NORTHEAST PLAINS

CITY           SKY/WX    TMP DP  RH WIND       PRES   REMARKS
LAS VEGAS      CLOUDY    59  56  89 NE13      30.53R
6HR MIN TEMP:  59; 6HR MAX TEMP:  79; 6HR PCP:  0.36;

RATON          RAIN      61  60  97 S9        30.50R FOG
6HR MIN TEMP:  60; 6HR MAX TEMP:  66; 6HR PCP:  0.89;

CLAYTON        LGT RAIN  67  57  70 N8        30.37F
6HR MIN TEMP:  67; 6HR MAX TEMP:  76; 6HR PCP: TRACE;


$$
NMZ532>537-280700-
EASTCENTRAL PLAINS

CITY           SKY/WX    TMP DP  RH WIND       PRES   REMARKS
TUCUMCARI      CLOUDY    76  61  59 E10       30.26S
6HR MIN TEMP:  76; 6HR MAX TEMP:  92;

CANNON AFB     PTCLDY    77  62  60 E14       30.27S
6HR MIN TEMP:  75; 6HR MAX TEMP:  91;

CLOVIS AIRPORT NOT AVBL

$$
NMZ028-029-538-280700-
SOUTHEAST PLAINS

CITY           SKY/WX    TMP DP  RH WIND       PRES   REMARKS
ROSWELL        PTCLDY    82  52  35 NE6       30.16R
6HR MIN TEMP:  81; 6HR MAX TEMP:  99;

ARTESIA        MOCLDY    86  55  35 E8        30.14R
CARLSBAD       PTCLDY    89  58  34 SE15      30.11R
6HR MIN TEMP:  89; 6HR MAX TEMP: 102;

HOBBS          MOCLDY    81  55  41 E7        30.18R


$$


USA.gov is the U.S. government's official web portal to all federal, state and local government web resources and services.